Charleston, SC

12:47 PM EDT on August 25, 2016 (GMT -0400)
Charleston Air Force Base-International

Weather History for KCHS - March, 2013

Change the Weather History Date:

Sunday, March 10, 2013

  Actual Average Record
Temperature  
Mean Temperature 54 °F 57 °F  
Max Temperature 68 °F 68 °F 90 °F (1974)
Min Temperature 39 °F 45 °F 28 °F (1966)
Degree Days  
Heating Degree Days 11 9  
Month to date heating degree days 175 99  
Since 1 July heating degree days 1560 1735  
Cooling Degree Days 0 1  
Month to date cooling degree days 0 8  
Year to date cooling degree days 21 15  
Growing Degree Days 4 (Base 50)    
Moisture  
Dew Point 39 °F    
Average Humidity 62    
Maximum Humidity 92    
Minimum Humidity 32    
Precipitation  
Precipitation 0.00 in 0.11 in 1.50 in (1967)
Month to date precipitation T 1.16  
Year to date precipitation 10.82 7.83  
Snow  
Snow 0.00 in 0.00 in - ()
Month to date snowfall 0.0  
Since 1 July snowfall T 0.5  
Snow Depth 0.00 in    
Sea Level Pressure  
Sea Level Pressure 30.25 in    
Wind  
Wind Speed 6 mph (East)    
Max Wind Speed 13 mph    
Max Gust Speed 17 mph    
Visibility 10 miles    
Events      
T = Trace of Precipitation, MM = Missing Value Source: NWS Daily Summary

Daily Weather History Graph

Daily Weather History Graph

Search for Another Location

Airport or City:

Trip Planner

Search our weather history database for the weather conditions in past years. The results will help you decide how hot, cold, wet, or windy it might be!

Date:

Astronomy

Mar. 10, 2013 Rise Set
Actual Time 7:36 AM EDT 7:24 PM EDT
Civil Twilight 7:11 AM EDT 7:49 PM EDT
Nautical Twilight 6:43 AM EDT 8:17 PM EDT
Astronomical Twilight 6:14 AM EDT 8:46 PM EDT
Moon 6:33 AM EDT (3/10) 6:31 PM EDT (3/10)
Length of Visible Light 12h 37m
Length of Day
11h 47m
Waning Crescent, 2% of the Moon is Illuminated
Mar 10
Waning Crescent
Mar 11
New
Mar 19
First Quarter
Mar 27
Full
Apr 3
Last Quarter

Hourly Weather History & Observations

Time (EDT) Temp. Windchill Dew Point Humidity Pressure Visibility Wind Dir Wind Speed Gust Speed Precip Events Conditions
12:56 AM 43.0 °F - 39.0 °F 86% 30.28 in 10.0 mi Calm Calm - N/A   Clear
1:56 AM 42.1 °F - 39.0 °F 89% 30.27 in 10.0 mi Calm Calm - N/A   Clear
3:56 AM 43.0 °F - 39.0 °F 86% 30.25 in 10.0 mi Calm Calm - N/A   Clear
4:56 AM 39.9 °F 36.7 °F 37.0 °F 89% 30.24 in 10.0 mi North 4.6 mph - N/A   Partly Cloudy
5:56 AM 42.1 °F - 37.9 °F 85% 30.25 in 10.0 mi Calm Calm - N/A   Partly Cloudy
6:56 AM 39.9 °F - 37.0 °F 89% 30.27 in 10.0 mi Calm Calm - N/A   Partly Cloudy
7:56 AM 41.0 °F 39.0 °F 37.9 °F 89% 30.28 in 10.0 mi North 3.5 mph - N/A   Scattered Clouds
8:56 AM 48.0 °F - 42.1 °F 80% 30.29 in 10.0 mi Calm Calm - N/A   Scattered Clouds
9:56 AM 57.0 °F - 39.0 °F 51% 30.29 in 10.0 mi East 10.4 mph - N/A   Scattered Clouds
10:56 AM 62.1 °F - 37.0 °F 39% 30.30 in 10.0 mi ESE 9.2 mph - N/A   Scattered Clouds
11:56 AM 64.9 °F - 37.0 °F 36% 30.28 in 10.0 mi East 8.1 mph - N/A   Scattered Clouds
12:56 PM 66.0 °F - 35.1 °F 32% 30.27 in 10.0 mi East 8.1 mph - N/A   Scattered Clouds
1:56 PM 66.9 °F - 39.9 °F 37% 30.26 in 10.0 mi SE 9.2 mph - N/A   Mostly Cloudy
2:56 PM 64.9 °F - 39.0 °F 39% 30.24 in 10.0 mi ESE 10.4 mph - N/A   Mostly Cloudy
3:56 PM 68.0 °F - 42.1 °F 39% 30.22 in 10.0 mi ESE 9.2 mph - N/A   Scattered Clouds
4:56 PM 66.0 °F - 42.1 °F 42% 30.22 in 10.0 mi ESE 12.7 mph - N/A   Partly Cloudy
5:56 PM 64.9 °F - 39.9 °F 40% 30.23 in 10.0 mi SE 8.1 mph - N/A   Partly Cloudy
6:56 PM 60.1 °F - 37.9 °F 44% 30.23 in 10.0 mi ESE 10.4 mph - N/A   Partly Cloudy
7:56 PM 55.9 °F - 35.1 °F 45% 30.23 in 10.0 mi ESE 8.1 mph - N/A   Partly Cloudy
8:56 PM 53.1 °F - 36.0 °F 52% 30.24 in 10.0 mi East 8.1 mph - N/A   Clear
9:56 PM 51.1 °F - 39.9 °F 66% 30.25 in 10.0 mi East 5.8 mph - N/A   Clear
10:56 PM 51.1 °F - 41.0 °F 68% 30.24 in 10.0 mi ENE 8.1 mph - N/A   Clear
11:56 PM 50.0 °F - 41.0 °F 71% 30.23 in 10.0 mi East 3.5 mph - N/A   Clear
12:56 AM 48.9 °F - 42.1 °F 77% 30.22 in 10.0 mi Calm Calm - N/A   Clear